Weather observations for the past three days for
Macdill Air Force Base, Fl.
Imperial (Metric)
Date Time (edt) Wind (mph) Vis. (mi.) Weather Sky Cond. Temperature (ºF) Relative Humidity Wind Chill (°F) Heat Index (°F) Pressure Precipitation (in)
Air Dwpt 6 hour altimeter (in) sea level (mb) 1 hr 3 hr 6 hr
Max. Min.
09 15:55 SW 16 10.00 A Few Clouds FEW210 88.3 70 55% 93 29.89 1012.4
09 14:55 SW 17 10.00 A Few Clouds FEW100 89.2 69.8 53% 94 29.91 1013.1
09 13:55 SW 14 10.00 Partly Cloudy FEW095 FEW160 SCT200 89.2 71.4 89.8 77.2 56% 96 29.91 1013.1
09 12:55 SW 8 10.00 Partly Cloudy FEW130 FEW160 SCT200 87.3 72.1 61% 94 29.91 1013.1
09 11:55 SW 6 10.00 A Few Clouds FEW190 84.9 70 61% 89 29.93 1013.8
09 10:55 S 7 10.00 Fair CLR 84.6 73.2 69% 91 29.94 1014.1
09 09:55 W 3 10.00 Fair CLR 83.5 72.1 69% 89 29.94 1014.1
09 08:55 Calm 10.00 Mostly Cloudy BKN095 80.1 72.1 77% 84 29.93 1013.8
09 07:55 Calm 10.00 Overcast OVC085 77.2 73.2 77.2 72.5 88% 79 29.93 1013.8
09 06:55 SE 3 10.00 A Few Clouds FEW090 74.8 71.6 90% 29.9 1012.8
09 05:55 Calm 10.00 Partly Cloudy SCT085 74.3 72.3 94% 29.9 1012.8
09 04:55 Calm 6.00 Fog/Mist CLR 72.5 70.7 94% 29.91 1013.1
09 03:55 E 3 10.00 Fair CLR 74.3 71.8 92% 29.9 1012.8
09 02:55 N 3 10.00 Fair CLR 75.4 72.5 91% 75 29.92 1013.4
09 01:55 NE 5 10.00 Fair CLR 74.5 71.6 84 74.5 91% 29.94 1014.1
09 00:55 NW 3 10.00 Fair CLR 77.9 72.3 83% 80 29.96 1014.8
08 23:55 NW 3 10.00 Fair CLR 78.8 72.5 81% 82 29.97 1015.1
08 22:55 NW 7 10.00 Fair CLR 79.3 72.9 81% 83 29.96 1014.8
08 21:55 NW 9 10.00 Fair CLR 79.9 73 80% 84 29.95 1014.5
08 20:55 W 9 10.00 Fair CLR 81.1 71.6 73% 85 29.93 1013.8
08 19:55 W 7 10.00 Fair CLR 84.2 69.3 90.1 84.2 61% 88 29.9 1012.8
08 18:55 NW 9 10.00 Fair CLR 88 66.9 50% 91 29.89 1012.4
08 17:55 NW 7 10.00 Fair CLR 88 70.2 56% 93 29.88 1012.1
08 16:55 SW 8 10.00 Fair CLR 89.6 71.8 56% 97 29.88 1012.1
08 15:55 SW 10 10.00 Fair CLR 87.8 73.6 63% 96 29.91 1013.1
08 14:55 W 7 10.00 A Few Clouds FEW160 89.1 72.3 58% 96 29.93 1013.8
08 13:55 W 7 10.00 Partly Cloudy FEW100 FEW130 SCT160 SCT180 90 70 90 78.3 52% 95 29.96 1014.8
08 12:55 W 9 10.00 Partly Cloudy FEW120 FEW160 SCT210 88.2 69.8 55% 93 29.97 1015.1
08 11:55 W 8 10.00 Fair CLR 86.9 71.2 60% 93 29.99 1015.8
08 10:55 W 9 10.00 Fair CLR 85.1 72.3 66% 91 30 1016.2
08 09:55 NW 7 10.00 Fair CLR 82.8 73.2 73% 89 30 1016.2
08 08:55 W 6 10.00 Fair CLR 79.9 74.5 84% 84 30 1016.2
08 07:55 Calm 10.00 Fair CLR 78.1 73.4 78.3 75.4 86% 81 29.98 1015.5
08 06:55 Calm 1.75 Fog/Mist CLR 75.9 72.1 88% 76 29.96 1014.8
08 05:55 Calm 1.38 Fog/Mist CLR 75.9 72.1 88% 76 29.94 1014.1
08 04:55 Calm 8.00 Fair CLR 75.7 72 88% 76 29.93 1013.8
08 03:55 Calm 10.00 Fair CLR 76.5 72 86% 77 29.93 1013.8
08 02:55 Calm 10.00 Fair CLR 76.6 71.4 84% 78 29.94 1014.1
08 01:55 Calm 10.00 Fair CLR 76.6 71.1 82.2 76.6 83% 78 29.96 1014.8
08 00:55 Calm 10.00 Fair CLR 76.8 70.9 82% 78 29.96 1014.8
07 23:55 W 5 10.00 Fair CLR 77.4 70.7 80% 79 29.97 1015.1
07 22:55 W 3 10.00 Fair CLR 77.4 70 78% 79 29.97 1015.1
07 21:55 W 5 10.00 Fair CLR 78.4 68.5 72% 81 29.96 1014.8
07 20:55 W 5 10.00 Fair CLR 80.1 68.9 69% 83 29.95 1014.5
07 19:55 W 5 10.00 Fair CLR 82.2 67.8 87.4 82.2 62% 85 29.94 1014.1
07 18:55 W 7 10.00 Fair CLR 85.5 66.4 53% 88 29.94 1014.1
07 17:55 W 5 10.00 Fair CLR 86.4 64.9 49% 88 29.94 1014.1
07 16:55 S 10 10.00 Fair CLR 86.5 67.8 54% 90 29.95 1014.5
07 15:55 SW 8 10.00 Fair CLR 86.5 67.8 54% 90 29.96 1014.8
07 14:55 S 17 10.00 A Few Clouds FEW200 85.8 70.7 61% 91 29.98 1015.5
07 13:55 S 15 10.00 Partly Cloudy FEW140 SCT170 SCT200 85.1 71.1 85.8 75 63% 90 30 1016.2
07 12:55 S 17 10.00 A Few Clouds FEW180 85.3 70.7 62% 90 30.01 1016.5
07 11:55 S 16 10.00 Fair CLR 84.9 71.8 65% 91 30.02 1016.8
07 10:55 S 15 10.00 Fair CLR 83.7 71.1 66% 89 30.02 1016.8
07 09:55 S 9 10.00 Fair CLR 80.8 72 75% 85 30.01 1016.5
07 08:55 S 9 10.00 Fair CLR 78.3 72 81% 81 30 1016.2
07 07:55 S 3 10.00 Fair CLR 74.8 70 74.8 69.1 85% 29.99 1015.8
07 06:55 S 8 10.00 Fair CLR 73.2 68 84% 29.98 1015.5
07 05:55 Calm 10.00 Fair CLR 72.5 70.7 94% 29.97 1015.1
07 04:55 E 3 10.00 Fair CLR 70.5 68.9 95% 29.96 1014.8
07 03:55 E 6 10.00 Fair CLR 70.2 68.5 95% 29.95 1014.5
07 02:55 E 3 10.00 Fair CLR 70.7 69.1 95% 29.97 1015.1
07 01:55 Calm 10.00 Fair CLR 71.8 69.6 81.5 71.2 93% 29.99 1015.8
07 00:55 N 3 10.00 Fair CLR 72 69.4 92% 30 1016.2
06 23:55 N 3 10.00 Fair CLR 73.9 70.7 90% 30.01 1016.5
06 22:55 NW 3 10.00 A Few Clouds FEW014 75.7 71.6 87% 76 30 1016.2
06 21:55 W 3 10.00 Fair CLR 77 71.8 84% 78 29.99 1015.8
06 20:55 SW 5 10.00 Fair CLR 78.8 72 80% 82 29.99 1015.8
06 19:55 W 5 10.00 Fair CLR 81.3 70.5 87.8 81.3 70% 85 29.98 1015.5
06 18:55 SW 10 10.00 Fair CLR 84.4 69.8 62% 89 29.97 1015.1
06 17:55 SW 13 10.00 Fair CLR 85.5 71.8 64% 91 29.98 1015.5
06 16:55 S 13 10.00 Fair CLR 86.5 73.2 65% 94 29.98 1015.5
Date Time (edt) Wind (mph) Vis. (mi.) Weather Sky Cond. Air Dwpt Max. Min. Relative Humidity Wind Chill (°F) Heat Index (°F) altimeter (in) sea level (mb) 1 hr 3 hr 6 hr
6 hour
Temperature (ºF) Pressure Precipitation (in)